WI3X Weather Reports


time (UTC)temp
C
wind
direction
speed
KPH
gust
KPH
rain 1hr
cm
rain 24hr
cm
rain mn
cm
humidity
%
barometer
mb
20260504202003 23 197 22.5 40.2 0.00 0.00 0.00 36 1008.3
20260504201003 23 192 22.5 37.0 0.00 0.00 0.00 39 1008.3
20260504200024 23 204 19.3 33.8 0.00 0.00 0.00 38 1008.6
20260504195004 23 208 19.3 40.2 0.00 0.00 0.00 37 1008.7
20260504194003 23 204 20.9 35.4 0.00 0.00 0.00 38 1008.8
20260504193004 23 210 20.9 37.0 0.00 0.00 0.00 38 1009.0
20260504192005 23 201 20.9 37.0 0.00 0.00 0.00 37 1009.0
20260504191003 23 218 16.1 33.8 0.00 0.00 0.00 39 1009.1
20260504190005 23 210 17.7 33.8 0.00 0.00 0.00 38 1009.3
20260504185005 22 215 14.5 29.0 0.00 0.00 0.00 38 1009.6
20260504184004 22 199 17.7 30.6 0.00 0.00 0.00 37 1009.6
20260504183004 23 223 14.5 27.4 0.00 0.00 0.00 42 1009.7
20260504182004 22 212 14.5 29.0 0.00 0.00 0.00 41 1009.9
20260504181003 22 200 19.3 41.8 0.00 0.00 0.00 38 1010.0
20260504180004 22 203 19.3 40.2 0.00 0.00 0.00 39 1010.2
20260504175004 21 197 16.1 32.2 0.00 0.00 0.00 37 1010.3
20260504174004 21 194 16.1 30.6 0.00 0.00 0.00 42 1010.3
20260504173003 21 205 16.1 32.2 0.00 0.00 0.00 37 1010.5
20260504172004 21 222 14.5 40.2 0.00 0.00 0.00 41 1010.7
20260504171003 21 205 16.1 27.4 0.00 0.00 0.00 49 1010.9
20260504151003 18 217 14.5 30.6 0.00 0.00 0.00 43 1012.3
20260504141003 15 204 12.9 22.5 0.00 0.00 0.00 47 1012.9
20260504082003 6 234 3.2 6.4 0.00 0.00 0.00 69 1013.8
20260504081004 6 226 3.2 11.3 0.00 0.00 0.00 68 1013.7
20260504050003 7 227 4.8 8.0 0.00 0.00 0.00 62 1013.7
20260504045003 7 228 4.8 11.3 0.00 0.00 0.00 62 1013.8
20260504044003 8 230 3.2 6.4 0.00 0.00 0.00 61 1013.9
20260504043003 8 226 4.8 8.0 0.00 0.00 0.00 60 1013.7
20260504042004 8 234 8.0 12.9 0.00 0.00 0.00 56 1013.7
20260504041004 8 234 8.0 14.5 0.00 0.00 0.00 59 1013.7
20260504040025 8 223 6.4 12.9 0.00 0.00 0.00 58 1013.6
20260504035003 8 225 6.4 12.9 0.00 0.00 0.00 60 1013.5
20260504034003 8 227 6.4 12.9 0.00 0.00 0.00 62 1013.4
20260504033024 8 233 8.0 14.5 0.00 0.00 0.00 58 1013.4
20260504032003 8 224 6.4 11.3 0.00 0.00 0.00 57 1013.4
20260504031003 8 223 4.8 8.0 0.00 0.00 0.00 58 1013.3
20260504030003 8 224 4.8 8.0 0.00 0.00 0.00 57 1013.2
20260504025003 8 224 4.8 8.0 0.00 0.00 0.00 57 1013.2
20260504024024 9 221 4.8 9.7 0.00 0.00 0.00 57 1013.2
20260504023024 9 218 4.8 6.4 0.00 0.00 0.00 56 1013.3
20260504022003 9 222 4.8 11.3 0.00 0.00 0.00 57 1013.3
20260504021003 9 221 4.8 9.7 0.00 0.00 0.00 57 1013.3
20260504020004 9 217 6.4 8.0 0.00 0.00 0.00 56 1013.4
20260504015003 10 219 4.8 8.0 0.00 0.00 0.00 55 1013.3
20260504014003 10 230 4.8 8.0 0.00 0.00 0.00 53 1013.2
20260504013003 10 230 4.8 6.4 0.00 0.00 0.00 52 1013.1
20260504012003 10 230 4.8 6.4 0.00 0.00 0.00 51 1013.0
20260504011003 11 231 4.8 6.4 0.00 0.00 0.00 50 1013.0
20260504010003 11 231 4.8 8.0 0.00 0.00 0.00 50 1013.0
20260504005004 12 234 4.8 11.3 0.00 0.00 0.00 48 1013.0
20260504004003 12 242 4.8 9.7 0.00 0.00 0.00 43 1012.9
20260504003003 13 247 6.4 11.3 0.00 0.00 0.00 42 1012.8
20260504002024 13 248 6.4 12.9 0.00 0.00 0.00 40 1012.7
20260504001024 13 249 6.4 16.1 0.00 0.00 0.00 37 1012.6
20260504000003 14 255 6.4 14.5 0.00 0.00 0.00 37 1012.4
20260503235003 14 266 4.8 14.5 0.00 0.00 0.00 36 1012.3
20260503234003 15 271 6.4 16.1 0.00 0.00 0.00 35 1012.2
20260503233003 15 264 8.0 20.9 0.00 0.00 0.00 34 1012.2
20260503232004 15 275 9.7 22.5 0.00 0.00 0.00 34 1012.2
20260503231003 15 268 9.7 27.4 0.00 0.00 0.00 33 1012.1
20260503230003 15 262 8.0 22.5 0.00 0.00 0.00 33 1012.1
20260503225004 16 273 11.3 25.7 0.00 0.00 0.00 33 1012.1
20260503224025 16 275 11.3 27.4 0.00 0.00 0.00 33 1012.1
20260503223004 16 275 11.3 30.6 0.00 0.00 0.00 34 1012.1
20260503222004 16 282 12.9 30.6 0.00 0.00 0.00 33 1012.0
20260503221004 16 272 14.5 29.0 0.00 0.00 0.00 32 1012.1
20260503220004 16 272 14.5 30.6 0.00 0.00 0.00 31 1012.2
20260503215004 16 263 14.5 33.8 0.00 0.00 0.00 33 1012.1
20260503214004 16 256 12.9 29.0 0.00 0.00 0.00 32 1012.0
20260503213004 17 263 16.1 37.0 0.00 0.00 0.00 33 1012.0
20260503212025 17 285 9.7 37.0 0.00 0.00 0.00 31 1011.9
20260503211004 17 282 17.7 32.2 0.00 0.00 0.00 33 1012.0
20260503210005 17 276 12.9 25.7 0.00 0.00 0.00 30 1012.0
20260503205004 17 263 11.3 30.6 0.00 0.00 0.00 34 1011.9
20260503204025 17 263 9.7 29.0 0.00 0.00 0.00 33 1012.1
20260503203026 16 272 12.9 30.6 0.00 0.00 0.00 33 1012.0